Regional Weather Roundup
Issued by NWS Green Bay, WI

Home | Current Version | Previous Version | Graphics & Text | Print | Product List | Glossary Off
Versions: 1 2 3 4 5 6 7 8 9 10 11 12 13 14 15 16 17 18 19 20 21 22 23 24 25 26 27 28 29 30 31 32 33 34 35 36 37 38 39 40 41 42 43 44 45 46 47 48 49 50

000
ASUS43 KGRB 281100
RWRGRB

NORTH-CENTRAL AND NORTHEAST WISCONSIN REGIONAL WEATHER ROUNDUP
NATIONAL WEATHER SERVICE GREEN BAY WI
600 AM CDT SUN AUG 28 2016

WIZ005-009-010>012-018-019-281200-
NORTH CENTRAL WISCONSIN

CITY           SKY/WX    TMP DP  RH WIND       PRES   REMARKS
IRONWOOD       NOT AVBL
MANITOWISH WTR NOT AVBL
ARBOR VITAE    NOT AVBL
EAGLE RIVER    NOT AVBL
LAND O LAKES   NOT AVBL
RHINELANDER    MOCLDY    61  61 100 NW3       30.17R
PHILLIPS       CLOUDY    59  59 100 CALM      30.16R
ANTIGO         NOT AVBL
TOMAHAWK       NOT AVBL
MERRILL        CLOUDY    61  61 100 SW5       30.17R
$$

WIZ013-073-281200-
NORTHEAST WISCONSIN

CITY           SKY/WX    TMP DP  RH WIND       PRES   REMARKS
IRON MOUNTAIN  CLOUDY    60  57  89 CALM      30.13R
MARINETTE      CLEAR    N/A N/A N/A W3        30.15R
$$

WIZ017-030-035>037-045-281200-
CENTRAL WISCONSIN

CITY           SKY/WX    TMP DP  RH WIND       PRES   REMARKS
MEDFORD        NOT AVBL
WAUSAU         CLEAR     61  60  97 NW5       30.15S
MOSINEE        FOG       55  55 100 CALM      30.18R VSB 1/4
MARSHFIELD     CLOUDY    63  61  93 CALM      30.16R FOG
WISC RAPIDS    CLOUDY    64  64 100 W5        30.17R
STEVENS POINT  NOT AVBL
WAUPACA        NOT AVBL
SHAWANO        NOT AVBL
CLINTONVILLE   MOCLDY    61  61 100 SW5       30.15R FOG
WAUTOMA        CLOUDY    65  65 100 CALM        N/A  FOG
$$

WIZ038-039-048-051-281200-
FOX VALLEY

CITY           SKY/WX    TMP DP  RH WIND       PRES   REMARKS
NWS GREEN BAY  MOCLDY    62  62 100 MISG      30.16R FOG
APPLETON       MOCLDY    63  63 100 SW3       30.15R FOG
OSHKOSH        CLOUDY    64  64 100 CALM      30.16R
FOND DU LAC    CLOUDY    64  63  96 NW6       30.17R FOG
$$

WIZ022-050-052-281200-
EAST CENTRAL WISCONSIN

CITY           SKY/WX    TMP DP  RH WIND       PRES   REMARKS
EPHRAIM        NOT AVBL
WASHINGTON ISL NOT AVBL
STURGEON BAY   CLOUDY    64  63  96 CALM      30.16R
MANITOWOC      CLOUDY    64  63  94 W5        30.17R
SHEBOYGAN      CLOUDY    64  63  96 NW6       30.17R FOG
$$

LMZ563-521-522-541>543-281200-
LAKESHORE

STATION/POSITION TIME  TEMP    WIND        PRES    VSBY  WAVE
                       AIR SEA DIR/SP/G                  HT/PER
                 (UTC) (F)     (DEG/KT/KT) (MB)    (MI)  (FT/S)
SHEBOYGAN LKSHOR 1000   62     350/  3/  4 1020.6R
KEWAUNEE LKSHORE 1000   63     310/  2/  3 1020.3R
NORTHPORT PIER   1000   65     230/  2/  4 1019.6R
N MID LAKE BUOY  0950   67 70  260/ 10/ 14 1019.0          1/ 3
S GREEN BAY BUOY 1000   66 71  270/  6/  8 1020.0
CHAMBERS ISLAND  1000   65     220/  6/  9 1019.6R
MENOMINEE LKSHOR 1000   65     220/  7/  9 1019.2R
$$




USA.gov is the U.S. government's official web portal to all federal, state and local government web resources and services.